Location: Sungai Dangang
(2.7500°N, 113.8333°E)
Time: 21:50:12
(UTC+00:00)

Cosmos 2333 Rocket - Pass Details

Date: 16 May 2021
Orbit: 839 x 863 km, 70.8° (Epoch: 15 June)

Event Time Altitude Azimuth Distance (km) Brightness Sun altitude
Exits shadow 20:34:29 36° 306° (NW) 1,330 2.9 -24.0°
Drops below altitude 10° 20:38:54 10° 353° (N) 2,489 4.8 -23.0°
Sets 20:41:31 0° 1° (N) 3,424 5.7 -22.4°
